Regional Weather Roundup
Issued by NWS

Home | Current Version | Previous Version | Graphics & Text | Print | Product List | Glossary On
Versions: 1 2 3 4 5 6 7 8 9 10 11 12 13 14 15 16 17 18 19 20 21 22 23 24 25 26 27 28 29 30 31 32 33 34 35 36 37 38 39 40 41 42 43 44 45 46 47 48 49 50
000
ASUS43 KLOT 250103
RWRIL

ILLINOIS REGIONAL WEATHER ROUNDUP
NATIONAL WEATHER SERVICE CHICAGO/ROMEOVILLE IL
700 PM CST FRI NOV 24 2017

NOTE: "FAIR" INDICATES FEW OR NO CLOUDS BELOW 12,000 FEET WITH NO
SIGNIFICANT WEATHER AND/OR OBSTRUCTIONS TO VISIBILITY.

* THESE STATIONS ARE NOT UNDER NWS QUALITY CONTROL. THEY ALSO MAY NOT
  REPORT WEATHER SUCH AS PRECIPITATION OR FOG.

ILZ001-002-007-009-015-016-024-250200-
NORTHWEST ILLINOIS

CITY           SKY/WX    TMP DP  RH WIND       PRES   REMARKS
MOLINE         CLEAR     60  41  49 NW10      29.54R
STERLING*      CLOUDY    55  42  61 W13       29.51
SAVANNA*       CLOUDY    57  42  56 W7        29.52R
$$

ILZ003-004-008-010-011-017-018-250200-
NORTH CENTRAL ILLINOIS

CITY           SKY/WX    TMP DP  RH WIND       PRES   REMARKS
ROCKFORD       MOCLDY    58  39  49 W8        29.49R
FREEPORT*      CLOUDY    56  41  56 W9        29.50R
ROCHELLE*      CLEAR     47  40  75 SW10      29.49R
DE KALB*       CLEAR     53  41  64 SW13      29.49R
PERU*          CLOUDY    59  38  45 SW17      29.51R
$$

ILZ005-006-012>014-019>023-250200-
NORTHEAST ILLINOIS

CITY           SKY/WX    TMP DP  RH WIND       PRES   REMARKS
CHICAGO-OHARE  PTCLDY    56  39  53 S18G26    29.47F
CHICAGO-MIDWAY NOT AVBL
AURORA         CLEAR     55  41  59 S16       29.49R
LANSING*       CLOUDY    53  40  61 S22G29    29.53S
JOLIET*        CLEAR     55  41  60 S9G18     29.51F
WAUKEGAN       CLEAR     57  41  55 SW24G33   29.43S
DUPAGE AIRPORT CLEAR     54  42  64 S14G25    29.48S
KANKAKEE*      PTCLDY    51  37  57 S16G23    29.56S
WHEELING       CLEAR     58  41  53 S15       29.48S
MORRIS*        CLEAR     55  40  57 SW15      29.50S
ROMEOVILLE*    CLEAR    N/A N/A N/A S18G24    29.50F
NORTHERLY ISL    N/A     55  37  50 S20         N/A
$$

LMZ740>746-250200-
SOUTHERN LAKE MICHIGAN

STATION/POSITION SKY/WX   TEMP    WIND        PRES    VSBY  WAVE
                          AIR SEA DIR/SP/G                  HT/PER
                          (F)     (DEG/KT/KT) (MB)    (MI)  (FT/S)
SOUTHERN BUOY              51 47  210/ 21/ 25  996.9          6/ 6
HARRISON CRIB              56     200/ 32/ 37   N/A
BURNHAM HARBOR             55     180/ 18/ 21   N/A
CALUMET HARBOR             54     190/ 14/ 21  998.7R
BURNS HARBOR               53     190/ 22/ 28 1000.0R
MICHIGAN CITY              53     170/ 21/ 24   N/A
$$

ILZ025>027-034>036-040-047-049-050-058-095>099-250200-
WEST-CENTRAL ILLINOIS

CITY           SKY/WX    TMP DP  RH WIND       PRES   REMARKS
QUINCY         CLOUDY    60  38  43 SW9       29.60R
GALESBURG*     CLOUDY    58  43  57 W10       29.58R
MACOMB*        CLOUDY    62  40  44 W17G31    29.61R
JACKSONVILLE*  CLOUDY    60  37  41 MISG      29.59S
PITTSFIELD*    PTCLDY    64  38  39 SW9       29.61R
$$

ILZ028>032-037-038-041>044-048-051>054-059>061-250200-
CENTRAL ILLINOIS

CITY           SKY/WX    TMP DP  RH WIND       PRES   REMARKS
PONTIAC        CLEAR     56  40  54 S20       29.55S
BLOOMINGTON    CLOUDY    54  38  54 SW22      29.57R
DECATUR        PTCLDY    56  37  49 S20G25    29.62R
PEORIA         CLEAR     56  40  55 SW7       29.55R
LACON*         CLOUDY    58  40  51 SW9G16    29.52R
LINCOLN*       PTCLDY    56  40  56 S9        29.59R
SPRINGFIELD    PTCLDY    59  40  49 S15       29.60R
TAYLORVILLE    CLOUDY    55  38  52 S21G26    29.63R
$$

ILZ033-039-045-046-055>057-062-063-250200-
EAST-CENTRAL ILLINOIS

CITY           SKY/WX    TMP DP  RH WIND       PRES   REMARKS
CHAMPAIGN      CLEAR     52  37  56 S22       29.61R
DANVILLE*      CLEAR     51  35  52 S21G31    29.59R
RANTOUL*       PTCLDY    53  39  59 S15       29.61R
MATTOON        CLEAR     54  36  50 S17G24    29.62F
PARIS*         CLEAR     51  37  57 S22       29.64F
$$

ILZ079-100>102-250200-
SOUTHWEST ILLINOIS

CITY           SKY/WX    TMP DP  RH WIND       PRES   REMARKS
ALTON          PTCLDY    59  39  47 S12       29.63S
BELLEVILLE     CLOUDY    58  36  45 S10       29.65S
CAHOKIA*       PTCLDY    62  34  35 S8        29.64S
SPARTA*        PTCLDY    56  37  47 S17G25    29.69F
$$

ILZ064>066-069>071-074>076-080>082-084>086-088>090-092>094-250200-
SOUTH-CENTRAL ILLINOIS

CITY           SKY/WX    TMP DP  RH WIND       PRES   REMARKS
CARBONDALE     CLEAR     56  37  49 S14       29.73F
CAIRO*         PTCLDY    53  36  53 S9        29.80F
EFFINGHAM*     CLEAR     56  36  46 S14G22    29.67F
MARION         PTCLDY    57  36  44 S17G26    29.75S
MT. VERNON     CLEAR     54  37  52 S15       29.71S
CENTRALIA*     CLEAR     55  39  54 S18G25    29.68S
SALEM*         CLEAR     57  36  45 S17G23    29.68S
METROPOLIS*    CLEAR     55  34  45 S12       29.81F
$$

ILZ067-068-072-073-078-083-087-091-250200-
SOUTHEAST ILLINOIS

CITY           SKY/WX    TMP DP  RH WIND       PRES   REMARKS
LAWRENCEVILLE  CLEAR     51  35  54 S17       29.71F
FLORA*         CLEAR     55  37  50 S14       29.69S
FAIRFIELD*     CLEAR     51  36  55 S5        29.71S
HARRISBURG*    CLEAR     56  36  45 S13G18    29.75F
ROBINSON*      CLEAR     51  34  52 S12G17    29.71S
CARMI*         CLEAR     52  36  54 S15       29.74F
$$

ABBREVIATIONS USED IN REMARKS
   TC - TEMPERATURE IN CELSIUS
  WCI - WIND CHILL INDEX
   HX - HEAT INDEX
  VSB - VISIBILITY
$$




USA.gov is the U.S. government's official web portal to all federal, state and local government web resources and services.